Drogheda, Ireland

7:13 PM GMT on December 14, 2017 (GMT +0000)
Drogheda

Weather History for 03969 - October, 2013

Change the Weather History Date:

Friday, October 25, 2013

  Actual Average Record
Temperature  
Mean Temperature 57 °F -  
Max Temperature 61 °F 51 °F - ()
Min Temperature 53 °F 41 °F - ()
Degree Days  
Heating Degree Days 8    
Growing Degree Days 7 (Base 50)    
Moisture  
Dew Point 53 °F    
Average Humidity 90    
Maximum Humidity 100    
Minimum Humidity 70    
Precipitation  
Precipitation 0.08 in 0.09 in - ()
Sea Level Pressure  
Sea Level Pressure 29.42 in    
Wind  
Wind Speed 12 mph ()    
Max Wind Speed 24 mph    
Max Gust Speed 37 mph    
Visibility 6.8 miles    
Events Rain    
T = Trace of Precipitation, MM = Missing Value Source: Averaged Metar Reports

Daily Weather History Graph

Daily Weather History Graph

Search for Another Location

Airport or City:

Trip Planner

Search our weather history database for the weather conditions in past years. The results will help you decide how hot, cold, wet, or windy it might be!

Date:

Astronomy

Oct. 25, 2013 Rise Set
Actual Time 8:10 AM IST 6:06 PM IST
Civil Twilight 7:34 AM IST 6:42 PM IST
Nautical Twilight 6:53 AM IST 7:23 PM IST
Astronomical Twilight 6:13 AM IST 8:03 PM IST
Moon 10:59 PM IST (10/25) 1:58 PM IST (10/25)
Length of Visible Light 11h 07m
Length of Day
9h 55m
Waning Gibbous, 64% of the Moon is Illuminated
Oct 25
Waning Gibbous
Oct 27
Last Quarter
Nov 3
New
Nov 10
First Quarter
Nov 17
Full

Hourly Weather History & Observations

Time (IST) Temp. Dew Point Humidity Pressure Visibility Wind Dir Wind Speed Gust Speed Precip Events Conditions
12:00 AM 53.6 °F 53.6 °F 100% 29.62 in 6.2 mi ESE 15.0 mph - N/A Rain Light Rain
12:30 AM 53.6 °F 53.6 °F 100% 29.62 in 6.2 mi East 12.7 mph - N/A   Mostly Cloudy
1:00 AM 54 °F 53 °F 95% 29.60 in 11 mi East 13.4 mph - - Rain Light Rain
1:00 AM 53.6 °F 53.6 °F 100% 29.59 in 6.2 mi East 12.7 mph - N/A   Mostly Cloudy
1:30 AM 53.6 °F 53.6 °F 100% 29.56 in 6.2 mi East 11.5 mph - N/A   Light Drizzle
2:00 AM 53.6 °F 53.6 °F 100% 29.53 in 6.2 mi East 12.7 mph - N/A Rain Light Rain
2:30 AM 53.6 °F 53.6 °F 100% 29.50 in 6.2 mi East 11.5 mph - N/A Rain Light Rain
3:00 AM 55.4 °F 53.6 °F 94% 29.50 in 6.2 mi SE 18.4 mph - N/A Rain Light Rain
3:30 AM 55.4 °F 53.6 °F 94% 29.47 in 6.2 mi SE 21.9 mph - N/A Rain Light Rain
4:00 AM 55.4 °F 53.6 °F 94% 29.44 in 6.2 mi ESE 20.7 mph - N/A Rain Light Rain
4:30 AM 55.4 °F 53.6 °F 94% 29.42 in 5.6 mi SE 21.9 mph - N/A Rain Light Rain
5:00 AM 55.4 °F 53.6 °F 94% 29.42 in 5.6 mi ESE 23.0 mph - N/A Rain Light Rain
5:30 AM 55.4 °F 53.6 °F 94% 29.39 in 5.6 mi ESE 24.2 mph 36.8 mph N/A Rain Light Rain
6:00 AM 55.4 °F 53.6 °F 94% 29.39 in 6.2 mi SE 21.9 mph - N/A Rain Light Rain
6:30 AM 55.4 °F 55.4 °F 100% 29.36 in 6.2 mi SE 21.9 mph - N/A Rain Light Rain
7:00 AM 56 °F 55 °F 95% 29.38 in 8 mi SE 15.7 mph - - Rain Light Rain
7:00 AM 55.4 °F 55.4 °F 100% 29.36 in 6.2 mi SE 18.4 mph - N/A Rain Light Rain
7:30 AM 55.4 °F 55.4 °F 100% 29.36 in 6.2 mi SSE 17.3 mph - N/A Rain Light Rain
8:00 AM 55.4 °F 55.4 °F 100% 29.36 in 6.2 mi SSE 11.5 mph - N/A   Mostly Cloudy
8:30 AM 55.4 °F 53.6 °F 94% 29.36 in 6.2 mi SSE 8.1 mph - N/A   Scattered Clouds
9:00 AM 57.2 °F 53.6 °F 88% 29.36 in 6.2 mi SE 4.6 mph - N/A   Partly Cloudy
9:30 AM 57.2 °F 53.6 °F 88% 29.39 in 6.2 mi SSW 5.8 mph - N/A   Partly Cloudy
10:00 AM 59.0 °F 53.6 °F 82% 29.39 in 6.2 mi SSW 5.8 mph - N/A   Partly Cloudy
10:30 AM 59.0 °F 53.6 °F 82% 29.39 in 6.2 mi SW 6.9 mph - N/A   Scattered Clouds
11:00 AM 60.8 °F 53.6 °F 77% 29.39 in 6.2 mi SSW 13.8 mph - N/A   Scattered Clouds
11:30 AM 60.8 °F 53.6 °F 77% 29.39 in 6.2 mi SSW 12.7 mph - N/A   Scattered Clouds
12:00 PM 60.8 °F 51.8 °F 72% 29.39 in 6.2 mi SSW 13.8 mph - N/A   Scattered Clouds
12:30 PM 60.8 °F 51.8 °F 72% 29.39 in 6.2 mi SSW 11.5 mph - N/A   Scattered Clouds
1:00 PM 60 °F 53 °F 70% 29.40 in 19 mi SSE 6.7 mph - -   Mostly Cloudy
1:00 PM 59.0 °F 51.8 °F 77% 29.39 in 6.2 mi South 6.9 mph - N/A   Mostly Cloudy
1:30 PM 59.0 °F 51.8 °F 77% 29.39 in 6.2 mi South 10.4 mph - N/A Rain Light Rain Showers
2:00 PM 57.2 °F 53.6 °F 88% 29.39 in 6.2 mi SSE 8.1 mph - N/A Rain Light Rain Showers
2:30 PM 55.4 °F 53.6 °F 94% 29.36 in 6.2 mi South 10.4 mph - N/A Rain Light Rain Showers
3:00 PM 55.4 °F 53.6 °F 94% 29.36 in 6.2 mi SE 11.5 mph - N/A   Mostly Cloudy
3:30 PM 55.4 °F 51.8 °F 88% 29.36 in 6.2 mi SSE 5.8 mph - N/A   Mostly Cloudy
4:00 PM 57.2 °F 53.6 °F 88% 29.36 in 6.2 mi SSE 6.9 mph - N/A   Scattered Clouds
4:30 PM 59.0 °F 53.6 °F 82% 29.36 in 6.2 mi SSE 6.9 mph - N/A   Scattered Clouds
5:00 PM 59.0 °F 53.6 °F 82% 29.36 in 6.2 mi SSW 4.6 mph - N/A   Scattered Clouds
5:30 PM 57.2 °F 53.6 °F 88% 29.36 in 6.2 mi SW 11.5 mph - N/A   Partly Cloudy
6:00 PM 57.2 °F 53.6 °F 88% 29.36 in 6.2 mi SW 9.2 mph - N/A   Partly Cloudy
6:30 PM 55.4 °F 53.6 °F 94% 29.39 in 6.2 mi SW 6.9 mph - N/A   Partly Cloudy
7:00 PM 56 °F 53 °F 85% 29.40 in 19 mi SW 11.2 mph - -   Partly Cloudy
7:00 PM 55.4 °F 53.6 °F 94% 29.39 in 6.2 mi SW 9.2 mph - N/A   Partly Cloudy
7:30 PM 55.4 °F 53.6 °F 94% 29.39 in 6.2 mi SW 10.4 mph - N/A   Partly Cloudy
8:00 PM 55.4 °F 53.6 °F 94% 29.39 in 6.2 mi SW 10.4 mph - N/A   Partly Cloudy
8:30 PM 57.2 °F 53.6 °F 88% 29.42 in 6.2 mi SW 10.4 mph - N/A   Scattered Clouds
9:00 PM 57.2 °F 53.6 °F 88% 29.42 in 6.2 mi SSW 12.7 mph - N/A   Scattered Clouds
9:30 PM 57.2 °F 53.6 °F 88% 29.42 in 6.2 mi SW 13.8 mph - N/A   Mostly Cloudy
10:00 PM 57.2 °F 51.8 °F 82% 29.42 in 6.2 mi SW 16.1 mph - N/A   Scattered Clouds
10:30 PM 55.4 °F 51.8 °F 88% 29.42 in 6.2 mi SW 17.3 mph - N/A   Mostly Cloudy
11:00 PM 55.4 °F 51.8 °F 88% 29.44 in 6.2 mi WSW 16.1 mph - N/A   Light Drizzle
11:30 PM 55.4 °F 51.8 °F 88% 29.44 in 6.2 mi WSW 15.0 mph - N/A   Mostly Cloudy